{"data":{"norad_id":63208,"epoch":"2026-09-22T23:15:31.560192Z","epoch_age_seconds":97447,"freshness":"FRESH","line1":"1 63208U 25051A   26265.96911528  .00005830  00000+0  25792-3 0  9997","line2":"2 63208  97.4455 344.2997 0001784 127.6132 232.5266 15.22062427 84712","mean_motion":15.22062427,"eccentricity":0.0001784,"inclination_deg":97.4455,"raan_deg":344.2997,"arg_perigee_deg":127.6132,"mean_anomaly_deg":232.5266,"bstar":0.00025792,"rev_number":8471,"period_min":94.608471666846,"perigee_km":498.3935923766,"apogee_km":500.84757628269,"semimajor_km":6877.7575843296,"source":"CELESTRAK","updated_at":"2026-09-23T09:00:21.896364Z"}}